Вернуться в каталог

STARLINK-30934

АктивенСвязьVLEO
NORAD 58395·PAYLOAD·🇺🇸 United States

Запущен Nov 20, 2023 с Vandenberg Space Force Base

Loading…

Ближайшие Пролёты (ближайшие 24 часа)

TLE

СвежийSource: CelesTrak SupGP

Эпоха: Sep 15, 2026, 01:41 UTC

1 58395C 23178X   26258.07062500 -.00001564  00000+0 -46173-4 0  2584
2 58395  53.1576 197.4552 0001437  94.8877 258.7938 15.34418850    12

Отслеживайте STARLINK-30934 в реальном времени с AllMySat

Download on the App Store